Flag for Nepal Weather past 2 weeks in Kathmandu, Nepal

Now
72 °F

Partly cloudy.


Feels Like: 67 °F
Forecast: 66 / 83 °F
Wind: No wind

Location: Kathmandu Airport

Current Time: Jul 31, 2014 at 8:12:20 AM

Latest Report: Jul 31, 2014 at 4:35 AM


Visibility: 5 mi

Pressure: 29.89 "Hg

Humidity: 94%

Dew point: 70 °F

Location of KathmanduLocation

Historic Weather in Kathmandu — Graph

°F

Kathmandu temperature yesterday

Maximum temperature yesterday: 84 °F (at 3:35 PM)
Minimum temperature yesterday: 68 °F (at 4:35 AM)
Average temperature yesterday: 75 °F

Past Weeks' High & Low Weather Summary

 TemperatureHumidityPressure
High84 °F (Jul 19, 1:35 PM)100% (Jul 24, 4:35 AM)29.98 "Hg (Jul 24, 4:35 AM)
Low68 °F (Jul 17, 4:35 AM)48% (Jul 27, 1:35 PM)29.62 "Hg (Jul 19, 4:35 PM)
Average75 °F78%29.81 "Hg
* Reported Jul 16 11:35 AM — Jul 31 4:35 AM, Kathmandu, Weather by CustomWeather, © 2014

Note: Actual official high and low records may vary slightly from our data, if they occured in-between our weather recording intervals... More about our weather records

Advertising

Kathmandu weather history for previous 24 hours

 ConditionsComfort  
Time TempWeatherWind HumidityBarometerVisibility
4:35 AM
Jul 31
72 °FPartly cloudy.No wind94%29.89 "Hg5 mi
2:35 AM72 °FDrizzle. Mostly cloudy.No wind94%29.89 "Hg5 mi
11:35 PM
Jul 30
73 °FLight rain. Mostly cloudy.No wind89%29.92 "Hg5 mi
10:35 PM73 °FLight rain. Partly cloudy.3 mph83%29.92 "Hg5 mi
9:35 PM73 °FPartly cloudy.3 mph83%29.89 "Hg5 mi
8:35 PM75 °FLight rain. Partly cloudy.5 mph78%29.89 "Hg5 mi
7:35 PM75 °FDrizzle. Broken clouds.8 mph78%29.83 "Hg5 mi
6:35 PM75 °FRain. Broken clouds.9 mph78%29.80 "Hg4 mi
5:35 PM79 °FRain. Broken clouds.13 mph79%29.80 "Hg4 mi
4:35 PM82 °FScattered clouds.7 mph66%29.80 "HgN/A
3:35 PM84 °FScattered clouds.5 mph62%29.80 "HgN/A
2:35 PM81 °FScattered clouds.3 mph74%29.80 "Hg5 mi
1:35 PM77 °FBroken clouds.6 mph69%29.83 "Hg5 mi
12:35 PM81 °FScattered clouds.8 mph62%29.83 "Hg5 mi
11:35 AM81 °FPartly sunny.3 mph66%29.86 "Hg5 mi
9:35 AM75 °FBroken clouds.No wind78%29.86 "Hg5 mi
8:35 AM73 °FBroken clouds.No wind89%29.86 "Hg4 mi
Weather by CustomWeather, © 2014

See weather overviewHow to use our weather pages